Weather Underground History page Text

Daily Summary for June 26, 2017 Units:  English    Metric   Both
« Previous Day
Next Day »
Daily Weekly Monthly Yearly Custom
  Current: High: Low: Average:
Temperature: 90.6 °F 91.9 °F 74.0 °F 81 °F
Dew Point: 75.8 °F 78.6 °F 72.3 °F 74.9 °F
Humidity: 62 % 97 % 57 % 83 %
Wind Speed: 10.4 mph 11.5 mph 0.0 mph 3.1 mph
Wind Gust: 10.4 mph 11.5 mph - -
Wind:SSE - - SSE
Pressure: 30.01 in 30.09 in 30.01 in -
Precipitation: 0.00 in      
Historical Graphs
 
 
Tabular Data for June 26, 2017
Time Temperature Dew Point Pressure Wind Wind Speed Wind Gust Humidity Rainfall Rate (Hourly) solar Conditions
00:02 79.1 °F 75.6 °F 30.09 in SSE 2.3 mph 2.3 mph 89 % 0.00 in 0.0 W/m2 RA
00:07 79.1 °F 75.6 °F 30.09 in SSE 2.3 mph 2.3 mph 89 % 0.00 in 0.0 W/m2 RA
00:12 79.1 °F 75.6 °F 30.09 in Calm     89 % 0.00 in 0.0 W/m2 CLR
00:13 79.1 °F 75.6 °F 30.09 in Calm     89 % 0.00 in 0.0 W/m2 CLR
00:18 78.9 °F 75.4 °F 30.09 in Calm     89 % 0.00 in 0.0 W/m2 CLR
00:23 78.9 °F 75.4 °F 30.09 in Calm     89 % 0.00 in 0.0 W/m2 CLR
00:28 78.8 °F 75.3 °F 30.08 in Calm     89 % 0.00 in 0.0 W/m2 CLR
00:33 78.7 °F 75.2 °F 30.08 in SE 2.3 mph 2.3 mph 89 % 0.00 in 0.0 W/m2 CLR
00:38 78.7 °F 75.2 °F 30.08 in SE 3.5 mph 3.5 mph 89 % 0.00 in 0.0 W/m2 CLR
00:43 78.6 °F 75.1 °F 30.08 in ESE 2.3 mph 2.3 mph 89 % 0.00 in 0.0 W/m2 CLR
00:48 78.5 °F 75.0 °F 30.08 in ESE 1.2 mph 1.2 mph 89 % 0.00 in 0.0 W/m2 CLR
00:53 78.4 °F 74.9 °F 30.08 in ESE 1.2 mph   89 % 0.00 in 0.0 W/m2 CLR
00:58 78.3 °F 74.8 °F 30.08 in ESE 2.3 mph 2.3 mph 89 % 0.00 in 0.0 W/m2 CLR
01:03 78.2 °F 74.7 °F 30.08 in ESE 2.0 mph 2.0 mph 89 % 0.00 in 0.0 W/m2 CLR
01:08 78.1 °F 74.6 °F 30.08 in SE 2.3 mph 2.3 mph 89 % 0.00 in 0.0 W/m2 CLR
01:13 78.0 °F 74.5 °F 30.08 in SSE 1.2 mph 1.2 mph 89 % 0.00 in 0.0 W/m2 CLR
01:18 77.9 °F 74.7 °F 30.07 in SE 2.0 mph 2.0 mph 90 % 0.00 in 0.0 W/m2 CLR
01:23 77.9 °F 75.1 °F 30.07 in SE 3.5 mph 3.5 mph 91 % 0.00 in 0.0 W/m2 CLR
01:28 77.9 °F 75.1 °F 30.07 in SE 2.3 mph 2.3 mph 91 % 0.00 in 0.0 W/m2 CLR
01:33 77.9 °F 75.1 °F 30.07 in SE 3.5 mph 3.5 mph 91 % 0.00 in 0.0 W/m2 CLR
01:38 77.9 °F 75.1 °F 30.07 in SE 3.5 mph 3.5 mph 91 % 0.00 in 0.0 W/m2 CLR
01:43 77.9 °F 75.1 °F 30.06 in SE 3.5 mph 3.5 mph 91 % 0.00 in 0.0 W/m2 CLR
01:48 77.9 °F 75.1 °F 30.06 in SE 2.3 mph 2.3 mph 91 % 0.00 in 0.0 W/m2 CLR
01:53 77.8 °F 75.0 °F 30.06 in Calm     91 % 0.00 in 0.0 W/m2 CLR
01:58 77.8 °F 75.0 °F 30.06 in Calm     91 % 0.00 in 0.0 W/m2 CLR
02:03 77.6 °F 74.8 °F 30.07 in Calm     91 % 0.00 in 0.0 W/m2 CLR
02:08 77.6 °F 74.8 °F 30.06 in Calm     91 % 0.00 in 0.0 W/m2 CLR
02:13 77.5 °F 74.7 °F 30.06 in Calm     91 % 0.00 in 0.0 W/m2 CLR
02:18 77.3 °F 74.5 °F 30.06 in Calm     91 % 0.00 in 0.0 W/m2 CLR
02:23 77.2 °F 74.4 °F 30.06 in Calm     91 % 0.00 in 0.0 W/m2 CLR
02:28 77.1 °F 74.3 °F 30.06 in Calm     91 % 0.00 in 0.0 W/m2 CLR
02:33 77.0 °F 74.2 °F 30.06 in Calm     91 % 0.00 in 0.0 W/m2 CLR
02:38 76.9 °F 74.1 °F 30.06 in Calm     91 % 0.00 in 0.0 W/m2 CLR
02:43 76.8 °F 74.0 °F 30.06 in Calm     91 % 0.00 in 0.0 W/m2 CLR
02:48 76.6 °F 73.8 °F 30.06 in Calm     91 % 0.00 in 0.0 W/m2 CLR
02:53 76.5 °F 73.7 °F 30.06 in SE 3.5 mph 3.5 mph 91 % 0.00 in 0.0 W/m2 CLR
02:58 76.5 °F 74.0 °F 30.06 in SE 2.3 mph 2.3 mph 92 % 0.00 in 0.0 W/m2 CLR
03:03 76.5 °F 74.0 °F 30.06 in SE 1.2 mph   92 % 0.00 in 0.0 W/m2 CLR
03:08 76.5 °F 74.0 °F 30.06 in SE 2.3 mph 2.3 mph 92 % 0.00 in 0.0 W/m2 CLR
03:13 76.4 °F 73.9 °F 30.06 in Calm     92 % 0.00 in 0.0 W/m2 CLR
03:18 76.4 °F 73.9 °F 30.06 in Calm     92 % 0.00 in 0.0 W/m2 CLR
03:23 76.3 °F 74.1 °F 30.06 in Calm     93 % 0.00 in 0.0 W/m2 CLR
03:28 76.3 °F 74.1 °F 30.06 in Calm     93 % 0.00 in 0.0 W/m2 CLR
03:33 76.2 °F 73.7 °F 30.06 in Calm     92 % 0.00 in 0.0 W/m2 CLR
03:38 76.1 °F 73.6 °F 30.05 in Calm     92 % 0.00 in 0.0 W/m2 CLR
03:43 76.0 °F 73.5 °F 30.05 in SE 1.0 mph   92 % 0.00 in 0.0 W/m2 CLR
03:45 76.0 °F 73.5 °F 30.05 in SE 3.5 mph 3.5 mph 92 % 0.00 in 0.0 W/m2 CLR
03:50 75.8 °F 73.6 °F 30.05 in SE 2.3 mph 2.3 mph 93 % 0.00 in 0.0 W/m2 CLR
03:55 75.8 °F 73.6 °F 30.05 in Calm     93 % 0.00 in 0.0 W/m2 CLR
04:00 75.7 °F 73.5 °F 30.05 in Calm     93 % 0.00 in 0.0 W/m2 CLR
04:05 75.7 °F 73.5 °F 30.05 in Calm     93 % 0.00 in 0.0 W/m2 CLR
04:10 75.6 °F 73.4 °F 30.04 in Calm     93 % 0.00 in 0.0 W/m2 CLR
04:15 75.6 °F 73.4 °F 30.04 in SE 1.2 mph 1.2 mph 93 % 0.00 in 0.0 W/m2 CLR
04:20 75.6 °F 73.4 °F 30.04 in Calm     93 % 0.00 in 0.0 W/m2 CLR
04:25 75.6 °F 73.4 °F 30.05 in Calm     93 % 0.00 in 0.0 W/m2 CLR
04:30 75.6 °F 73.8 °F 30.05 in SE 2.3 mph 2.3 mph 94 % 0.00 in 0.0 W/m2 CLR
04:35 75.6 °F 73.8 °F 30.04 in Calm     94 % 0.00 in 0.0 W/m2 CLR
04:40 75.6 °F 73.8 °F 30.04 in Calm     94 % 0.00 in 0.0 W/m2 CLR
04:45 75.6 °F 73.8 °F 30.05 in Calm     94 % 0.00 in 0.0 W/m2 CLR
04:50 75.6 °F 73.8 °F 30.04 in SE 2.3 mph 2.3 mph 94 % 0.00 in 0.0 W/m2 CLR
04:55 75.6 °F 73.8 °F 30.05 in SE 1.2 mph   94 % 0.00 in 0.0 W/m2 CLR
05:00 75.6 °F 73.8 °F 30.05 in SE 1.2 mph 1.2 mph 94 % 0.00 in 0.0 W/m2 CLR
05:05 75.5 °F 73.7 °F 30.04 in Calm     94 % 0.00 in 0.0 W/m2 CLR
05:10 75.4 °F 73.6 °F 30.04 in Calm     94 % 0.00 in 0.0 W/m2 CLR
05:15 75.4 °F 73.6 °F 30.04 in SE 1.2 mph 1.2 mph 94 % 0.00 in 0.0 W/m2 CLR
05:20 75.3 °F 73.5 °F 30.04 in Calm     94 % 0.00 in 0.0 W/m2 CLR
05:25 75.3 °F 73.5 °F 30.04 in Calm     94 % 0.00 in 0.0 W/m2 CLR
05:30 75.2 °F 73.4 °F 30.05 in Calm     94 % 0.00 in 0.0 W/m2 CLR
05:35 75.1 °F 73.3 °F 30.04 in Calm     94 % 0.00 in 0.0 W/m2 CLR
05:40 75.0 °F 73.2 °F 30.04 in Calm     94 % 0.00 in 0.0 W/m2 CLR
05:45 74.9 °F 73.1 °F 30.04 in Calm     94 % 0.00 in 0.0 W/m2 CLR
05:50 74.9 °F 73.1 °F 30.05 in Calm     94 % 0.00 in 0.0 W/m2 CLR
05:55 74.8 °F 73.0 °F 30.05 in Calm     94 % 0.00 in 0.0 W/m2 CLR
06:00 74.7 °F 72.9 °F 30.05 in Calm     94 % 0.00 in 0.0 W/m2 CLR
06:05 74.7 °F 72.9 °F 30.05 in Calm     94 % 0.00 in 0.0 W/m2 CLR
06:06 74.7 °F 72.9 °F 30.05 in Calm     94 % 0.00 in 0.0 W/m2 CLR
06:11 74.6 °F 72.8 °F 30.05 in Calm     94 % 0.00 in 0.0 W/m2 CLR
06:16 74.4 °F 72.6 °F 30.05 in Calm     94 % 0.00 in 0.0 W/m2 CLR
06:21 74.4 °F 72.6 °F 30.04 in Calm     94 % 0.00 in 0.0 W/m2 CLR
06:26 74.3 °F 72.5 °F 30.04 in Calm     94 % 0.00 in 0.0 W/m2 CLR
06:31 74.3 °F 72.5 °F 30.04 in Calm     94 % 0.00 in 0.0 W/m2 CLR
06:36 74.2 °F 72.4 °F 30.04 in Calm     94 % 0.00 in 5.0 W/m2 CLR
06:41 74.1 °F 72.3 °F 30.04 in Calm     94 % 0.00 in 5.0 W/m2 CLR
06:46 74.1 °F 72.3 °F 30.05 in Calm     94 % 0.00 in 9.0 W/m2 CLR
06:51 74.1 °F 72.6 °F 30.05 in Calm     95 % 0.00 in 9.0 W/m2 CLR
06:56 74.0 °F 72.5 °F 30.05 in Calm     95 % 0.00 in 11.0 W/m2 CLR
07:01 74.0 °F 72.5 °F 30.05 in Calm     95 % 0.00 in 12.0 W/m2 CLR
07:06 74.0 °F 72.5 °F 30.05 in Calm     95 % 0.00 in 18.0 W/m2 CLR
07:11 74.1 °F 72.6 °F 30.05 in Calm     95 % 0.00 in 18.0 W/m2 CLR
07:16 74.1 °F 72.6 °F 30.05 in Calm     95 % 0.00 in 21.0 W/m2 CLR
07:21 74.2 °F 72.7 °F 30.05 in Calm     95 % 0.00 in 23.0 W/m2 BKN
07:26 74.3 °F 72.8 °F 30.05 in Calm     95 % 0.00 in 25.0 W/m2 BKN
07:31 74.6 °F 73.4 °F 30.05 in Calm     96 % 0.00 in 25.0 W/m2 BKN
07:36 75.0 °F 73.8 °F 30.06 in Calm     96 % 0.00 in 26.0 W/m2 BKN
07:41 75.4 °F 74.2 °F 30.06 in Calm     96 % 0.00 in 28.0 W/m2 BKN
07:46 75.9 °F 75.0 °F 30.06 in Calm     97 % 0.00 in 30.0 W/m2 BKN
07:51 76.3 °F 75.1 °F 30.06 in Calm     96 % 0.00 in 30.0 W/m2 BKN
07:56 76.6 °F 75.7 °F 30.06 in Calm     97 % 0.00 in 32.0 W/m2 BKN
08:01 76.9 °F 75.7 °F 30.06 in Calm     96 % 0.00 in 33.0 W/m2 BKN
08:06 77.1 °F 75.9 °F 30.06 in SSW 1.2 mph   96 % 0.00 in 32.0 W/m2 BKN
08:11 77.3 °F 76.1 °F 30.06 in SSW 2.0 mph 2.0 mph 96 % 0.00 in 33.0 W/m2 BKN
08:16 77.4 °F 76.2 °F 30.06 in SSW 2.3 mph 2.3 mph 96 % 0.00 in 33.0 W/m2 BKN
08:21 77.4 °F 76.2 °F 30.06 in SSW 3.5 mph 3.5 mph 96 % 0.00 in 35.0 W/m2 BKN
08:26 77.6 °F 76.4 °F 30.06 in South 3.5 mph 3.5 mph 96 % 0.00 in 35.0 W/m2 BKN
08:31 77.8 °F 76.6 °F 30.06 in SSE 9.2 mph 9.2 mph 96 % 0.00 in 37.0 W/m2 BKN
08:36 78.0 °F 76.8 °F 30.06 in SSE 5.8 mph 5.8 mph 96 % 0.00 in 40.0 W/m2 BKN
08:41 78.3 °F 76.7 °F 30.06 in SSE 5.8 mph 5.8 mph 95 % 0.00 in 39.0 W/m2 BKN
08:46 78.7 °F 76.8 °F 30.06 in SSW 2.3 mph 2.3 mph 94 % 0.00 in 54.0 W/m2 BKN
08:51 79.0 °F 77.1 °F 30.06 in SE 5.8 mph 5.8 mph 94 % 0.00 in 62.0 W/m2 FEW
08:56 79.4 °F 77.2 °F 30.06 in SE 3.5 mph 3.5 mph 93 % 0.00 in 49.0 W/m2 SCT
09:01 79.7 °F 76.8 °F 30.06 in SW 4.6 mph 4.6 mph 91 % 0.00 in 54.0 W/m2 CLR
09:06 80.1 °F 76.9 °F 30.06 in SW 7.0 mph 7.0 mph 90 % 0.00 in 79.0 W/m2 CLR
09:11 80.6 °F 77.1 °F 30.06 in SSE 6.9 mph 6.9 mph 89 % 0.00 in 100.0 W/m2 CLR
09:16 81.0 °F 77.1 °F 30.06 in SSE 3.5 mph 3.5 mph 88 % 0.00 in 90.0 W/m2 CLR
09:21 81.4 °F 76.8 °F 30.06 in SSE 5.8 mph 5.8 mph 86 % 0.00 in 91.0 W/m2 CLR
09:26 81.9 °F 76.9 °F 30.06 in SSE 6.9 mph 6.9 mph 85 % 0.00 in 77.0 W/m2 CLR
09:31 82.0 °F 76.3 °F 30.06 in SE 5.0 mph 5.0 mph 83 % 0.00 in 76.0 W/m2 CLR
09:36 82.4 °F 76.3 °F 30.06 in SSE 10.0 mph 10.0 mph 82 % 0.00 in 555.0 W/m2 CLR
09:41 82.7 °F 75.9 °F 30.06 in SSW 5.0 mph 5.0 mph 80 % 0.00 in 531.0 W/m2 CLR
09:46 83.0 °F 75.8 °F 30.06 in SSE 10.4 mph 10.4 mph 79 % 0.00 in 100.0 W/m2 CLR
09:51 83.3 °F 75.7 °F 30.06 in SSE 8.0 mph 8.0 mph 78 % 0.00 in 540.0 W/m2 CLR
09:53 83.5 °F 75.9 °F 30.06 in SSE 8.1 mph 8.1 mph 78 % 0.00 in 552.0 W/m2 CLR
09:58 84.1 °F 76.1 °F 30.06 in SSW 3.5 mph 3.5 mph 77 % 0.00 in 573.0 W/m2 CLR
10:03 84.5 °F 75.7 °F 30.06 in SE 6.9 mph 6.9 mph 75 % 0.00 in 527.0 W/m2 CLR
10:08 85.2 °F 76.4 °F 30.06 in SSW 5.8 mph 5.8 mph 75 % 0.00 in 563.0 W/m2 CLR
10:13 85.7 °F 76.0 °F 30.06 in SSW 3.5 mph 3.5 mph 73 % 0.00 in 624.0 W/m2 CLR
10:14 85.7 °F 76.0 °F 30.06 in SSW 2.3 mph 2.3 mph 73 % 0.00 in 642.0 W/m2 CLR
10:19 86.0 °F 74.2 °F 30.06 in South 4.0 mph 4.0 mph 68 % 0.00 in 650.0 W/m2 CLR
10:24 86.6 °F 76.5 °F 30.06 in SW 3.5 mph 3.5 mph 72 % 0.00 in 705.0 W/m2 CLR
10:29 87.2 °F 75.3 °F 30.06 in SW 8.1 mph 8.1 mph 68 % 0.00 in 747.0 W/m2 CLR
10:34 87.5 °F 75.6 °F 30.06 in South 2.3 mph 2.3 mph 68 % 0.00 in 130.0 W/m2 CLR
10:39 87.5 °F 74.3 °F 30.06 in South 3.5 mph 3.5 mph 65 % 0.00 in 817.0 W/m2 CLR
10:44 87.6 °F 74.8 °F 30.06 in SSE 6.9 mph 6.9 mph 66 % 0.00 in 824.0 W/m2 CLR
10:49 87.5 °F 75.6 °F 30.06 in SSE 4.6 mph 4.6 mph 68 % 0.00 in 909.0 W/m2 CLR
10:54 87.5 °F 74.3 °F 30.06 in SE 3.5 mph 3.5 mph 65 % 0.00 in 239.0 W/m2 CLR
10:59 87.5 °F 75.2 °F 30.06 in SW 4.0 mph 4.0 mph 67 % 0.00 in 202.0 W/m2 CLR
11:04 87.4 °F 75.1 °F 30.06 in WNW 3.5 mph 3.5 mph 67 % 0.00 in 199.0 W/m2 CLR
11:09 87.2 °F 74.9 °F 30.06 in WSW 8.1 mph 8.1 mph 67 % 0.00 in 151.0 W/m2 CLR
11:14 87.1 °F 74.8 °F 30.06 in SSW 3.0 mph 3.0 mph 67 % 0.00 in 130.0 W/m2 CLR
11:19 86.8 °F 74.5 °F 30.06 in SW 3.5 mph 3.5 mph 67 % 0.00 in 111.0 W/m2 CLR
11:24 86.6 °F 74.3 °F 30.06 in SSW 3.5 mph 3.5 mph 67 % 0.00 in 139.0 W/m2 CLR
11:29 86.4 °F 74.1 °F 30.06 in SW 4.6 mph 4.6 mph 67 % 0.00 in 158.0 W/m2 CLR
11:34 86.3 °F 74.0 °F 30.06 in SW 3.5 mph 3.5 mph 67 % 0.00 in 144.0 W/m2 CLR
11:39 86.3 °F 74.9 °F 30.06 in Calm     69 % 0.00 in 1051.0 W/m2 CLR
11:44 86.8 °F 75.8 °F 30.06 in SW 2.3 mph 2.3 mph 70 % 0.00 in 338.0 W/m2 CLR
11:49 87.0 °F 73.8 °F 30.06 in NNW 3.5 mph 3.5 mph 65 % 0.00 in 404.0 W/m2 CLR
11:54 87.2 °F 74.0 °F 30.06 in NNW 1.2 mph 1.2 mph 65 % 0.00 in 947.0 W/m2 CLR
11:59 87.7 °F 74.0 °F 30.06 in SE 3.5 mph 3.5 mph 64 % 0.00 in 965.0 W/m2 CLR
12:04 88.4 °F 73.2 °F 30.06 in SSE 5.8 mph 5.8 mph 61 % 0.00 in 279.0 W/m2 CLR
12:09 88.7 °F 73.5 °F 30.06 in East 3.0 mph 3.0 mph 61 % 0.00 in 422.0 W/m2 CLR
12:14 89.3 °F 74.1 °F 30.05 in SE 4.0 mph 4.0 mph 61 % 0.00 in 969.0 W/m2 CLR
12:19 89.8 °F 72.5 °F 30.05 in SSE 3.5 mph 3.5 mph 57 % 0.00 in 939.0 W/m2 CLR
12:24 90.1 °F 72.8 °F 30.05 in ESE 6.9 mph 6.9 mph 57 % 0.00 in 960.0 W/m2 CLR
12:29 90.9 °F 78.0 °F 30.05 in East 6.9 mph 6.9 mph 66 % 0.00 in 990.0 W/m2 CLR
12:34 91.1 °F 78.6 °F 30.05 in ENE 10.4 mph 10.4 mph 67 % 0.00 in 977.0 W/m2 CLR
12:39 91.4 °F 78.4 °F 30.05 in SE 6.9 mph 6.9 mph 66 % 0.00 in 967.0 W/m2 CLR
12:44 91.1 °F 77.7 °F 30.04 in ENE 6.9 mph 6.9 mph 65 % 0.00 in 1020.0 W/m2 CLR
12:49 91.1 °F 77.7 °F 30.04 in ESE 6.9 mph 6.9 mph 65 % 0.00 in 1049.0 W/m2 CLR
12:54 90.9 °F 78.4 °F 30.04 in East 9.2 mph 9.2 mph 67 % 0.00 in 1037.0 W/m2 CLR
12:59 90.1 °F 76.7 °F 30.04 in SE 6.9 mph 6.9 mph 65 % 0.00 in 190.0 W/m2 CLR
13:04 88.8 °F 76.0 °F 30.04 in ENE 6.9 mph 6.9 mph 66 % 0.00 in 264.0 W/m2 CLR
13:09 88.5 °F 76.6 °F 30.04 in ENE 6.9 mph 6.9 mph 68 % 0.00 in 1016.0 W/m2 CLR
13:14 88.8 °F 76.9 °F 30.03 in ESE 7.0 mph 7.0 mph 68 % 0.00 in 958.0 W/m2 CLR
13:19 89.2 °F 76.4 °F 30.04 in ENE 5.8 mph 5.8 mph 66 % 0.00 in 970.0 W/m2 CLR
13:24 89.7 °F 77.3 °F 30.03 in SE 10.4 mph 10.4 mph 67 % 0.00 in 967.0 W/m2 CLR
13:29 89.6 °F 76.7 °F 30.03 in East 6.9 mph 6.9 mph 66 % 0.00 in 967.0 W/m2 CLR
13:34 89.7 °F 77.3 °F 30.03 in ENE 10.4 mph 10.4 mph 67 % 0.00 in 969.0 W/m2 CLR
13:39 90.1 °F 76.7 °F 30.03 in ESE 3.5 mph 3.5 mph 65 % 0.00 in 972.0 W/m2 CLR
13:44 90.0 °F 75.7 °F 30.02 in East 6.9 mph 6.9 mph 63 % 0.00 in 972.0 W/m2 CLR
13:49 89.9 °F 75.6 °F 30.02 in SE 6.0 mph 6.0 mph 63 % 0.00 in 983.0 W/m2 CLR
13:54 90.3 °F 76.5 °F 30.02 in SE 6.9 mph 6.9 mph 64 % 0.00 in 991.0 W/m2 CLR
13:59 90.6 °F 77.2 °F 30.02 in East 9.2 mph 9.2 mph 65 % 0.00 in 1016.0 W/m2 CLR
14:04 91.1 °F 78.6 °F 30.02 in East 8.1 mph 8.1 mph 67 % 0.00 in 984.0 W/m2 CLR
14:09 91.3 °F 76.9 °F 30.02 in ENE 8.1 mph 8.1 mph 63 % 0.00 in 958.0 W/m2 CLR
14:14 91.9 °F 77.5 °F 30.02 in East 11.5 mph 11.5 mph 63 % 0.00 in 965.0 W/m2 CLR
14:19 91.5 °F 76.1 °F 30.02 in ESE 9.2 mph 9.2 mph 61 % 0.00 in 970.0 W/m2 CLR
14:24 91.7 °F 77.8 °F 30.01 in SE 11.5 mph 11.5 mph 64 % 0.00 in 940.0 W/m2 CLR
14:29 91.6 °F 75.7 °F 30.01 in ESE 6.9 mph 6.9 mph 60 % 0.00 in 923.0 W/m2 CLR
14:34 91.4 °F 76.1 °F 30.01 in ENE 6.9 mph 6.9 mph 61 % 0.00 in 940.0 W/m2 CLR
14:39 91.1 °F 76.3 °F 30.01 in East 8.0 mph 8.0 mph 62 % 0.00 in 1048.0 W/m2 CLR
14:44 90.7 °F 75.9 °F 30.01 in ENE 4.6 mph 4.6 mph 62 % 0.00 in 976.0 W/m2 CLR
14:49 90.9 °F 76.1 °F 30.01 in SSE 10.4 mph 10.4 mph 62 % 0.00 in 918.0 W/m2 CLR
14:54 90.5 °F 75.7 °F 30.01 in ENE 6.9 mph 6.9 mph 62 % 0.00 in 904.0 W/m2 CLR
14:59 90.6 °F 75.8 °F 30.01 in SSE 10.4 mph 10.4 mph 62 % 0.00 in 933.0 W/m2 CLR
Treasure Coast Weather
Compliments of Weather Underground - 2.5 mb

Script developed by  Jim McMurry - jmcmurry@mwt.net Adapted for the template by  Wim van der Kuil - Leuven-Template.eu

You find our weather info also at:

WeatherCloud

Weather Underground

Southeastern Weather Network

Citizen Weather Observer Program (CWOP)

HAMweather, WeatherForYou, PWS Weather

Anything Weather